Overview Statistics Trail Chart Weather Telemetry Raw packets
 

This is the latest recevied weather packets stored in our database for station/object WX5RP. If no packets are shown the sender has not sent any weather packets the latest 10 day(s).

<< 41 42 43 44 45 46 47 >>
Time Temp. Humidity Pressure Rain* Wind** Luminosity Snow
1777362318 -0.56° C 73% 1018.7 hPa 0 mm - 0 W/m² -
1777361717 -0.56° C 74% 1018.6 hPa 0 mm - 0 W/m² -
1777361117 -0.56° C 74% 1018.5 hPa 0 mm - 0 W/m² -
1777360516 -1.11° C 73% 1018.5 hPa 0 mm - 0 W/m² -
1777359917 -0.56° C 71% 1018.4 hPa 0 mm - 0 W/m² -
1777359317 0° C 71% 1018.7 hPa 0 mm - 0 W/m² -
1777358716 -0.56° C 72% 1018.7 hPa 0 mm - 0 W/m² -
1777358116 -0.56° C 72% 1018.6 hPa 0 mm - 0 W/m² -
1777357516 -0.56° C 73% 1018.2 hPa 0 mm - 0 W/m² -
1777356916 -1.11° C 74% 1017.9 hPa 0 mm - 0 W/m² -
1777356316 -2.22° C 71% 1018.2 hPa 0 mm - 0 W/m² -
1777355716 -1.11° C 68% 1017.9 hPa 0 mm - 0 W/m² -
1777355116 -0.56° C 67% 1018.2 hPa 0 mm - 0 W/m² -
1777354516 0° C 66% 1017.7 hPa 0 mm - 0 W/m² -
1777353916 0.56° C 64% 1017 hPa 0 mm - 0 W/m² -
1777353316 1.67° C 62% 1017.3 hPa 0 mm - 0 W/m² -
1777352716 2.78° C 58% 1017.6 hPa 0 mm - 0 W/m² -
1777352117 3.89° C 55% 1016.4 hPa 0 mm - 0 W/m² -
1777351516 5° C 54% 1016.7 hPa 0 mm - 0 W/m² -
1777350916 4.44° C 54% 1016.9 hPa 0 mm - 0 W/m² -
1777350316 4.44° C 53% 1016.4 hPa 0 mm - 0 W/m² -
1777349716 5° C 52% 1016.7 hPa 0 mm - 0 W/m² -
1777349116 6.11° C 49% 1016.9 hPa 0 mm - 0 W/m² -
1777348516 6.11° C 49% 1016.7 hPa 0 mm - 0 W/m² -
1777347915 5.56° C 45% 1016 hPa 0 mm - 0 W/m² -

* Rain latest hour (hover to see other rain measurements)
** Current wind speed in m/s (hover to see current wind gust speed)